Wind_Speed
25 11 16 26 22 13 8 7 9 20 24 5 12 15 23 20 18 21 28 32 34 22 24 32 37 33 28 21 15 12 8 5 5 4 7 10 15 16 15 10 11 11 9 9
7 25 24 17 16 13 12 14 17 20 23 6 17 19 22 12 7 21 29 34 32 19 21 29 36 33 28 20 14 12 8 5 3 3 7 11 14 14 15 9 8 10 12 7
22 8 19 17 15 13 16 18 17 18 21 16 11 16 9 6 6 13 23 26 20 22 31 36 36 31 25 18 14 12 8 5 2 5 6 9 9 12 13 8 6 10 8 4
18 21 16 21 18 17 19 17 19 16 12 8 6 7 6 6 5 5 13 15 17 28 34 37 37 31 25 17 14 11 9 5 6 3 4 8 11 14 13 5 6 4 2 6
17 21 24 21 26 21 18 18 18 20 14 9 22 4 8 6 6 9 10 10 20 31 36 41 37 31 21 17 15 12 9 5 5 5 4 9 11 11 7 3 3 2 2 6
26 9 21 24 18 22 23 11 12 12 9 11 16 7 14 5 8 5 2 18 31 33 35 36 32 25 20 16 15 13 10 5 3 4 2 9 8 8 7 4 3 4 5 8
14 24 16 15 21 20 15 10 4 3 4 11 10 7 11 6 8 8 8 20 25 30 33 33 32 27 21 20 17 13 8 6 5 6 5 7 6 7 7 6 6 4 5 9
16 12 27 21 20 17 20 14 8 7 5 4 6 6 9 9 5 13 18 24 28 30 30 31 31 26 21 20 17 12 8 6 10 9 4 3 6 4 6 8 10 2 5 10
16 16 8 21 19 19 13 15 21 5 4 2 4 6 9 5 6 6 16 26 30 31 32 33 29 25 21 20 16 11 9 9 11 9 4 2 6 5 6 8 9 5 9 11
4 5 16 16 15 24 26 5 7 2 10 6 4 4 5 1 7 6 8 16 28 30 32 31 29 26 20 17 14 12 10 11 9 4 5 3 3 6 6 6 6 8 8 8
9 3 5 16 21 27 11 10 6 5 6 8 3 7 8 13 10 15 13 26 33 34 35 33 30 25 19 17 16 15 12 13 10 6 7 3 1 5 5 6 6 6 8 9
25 4 11 22 5 16 14 14 10 9 5 2 6 10 3 12 13 15 16 28 33 35 36 32 29 26 23 21 17 16 15 12 10 8 8 6 2 2 3 7 5 5 8 11
6 16 9 8 2 8 16 14 8 5 5 8 7 7 3 5 12 19 21 25 33 35 35 33 31 28 25 23 17 14 17 14 11 9 11 8 4 3 5 7 6 8 10 12
11 7 28 15 11 5 6 18 14 8 5 6 9 5 3 2 13 9 19 31 36 38 38 37 33 29 26 23 18 15 18 16 12 11 12 9 4 8 8 8 10 11 14 14
8 13 21 31 18 5 8 18 19 17 13 11 8 11 9 10 16 19 30 30 32 36 39 39 36 31 26 25 20 17 18 18 15 14 11 10 11 14 9 13 13 15 17 14
9 6 16 23 30 27 18 15 22 16 8 8 12 9 8 19 18 15 25 29 31 37 41 40 36 33 29 28 23 20 18 19 18 16 11 15 15 11 11 13 12 14 15 13
4 5 3 21 19 20 20 21 19 19 15 13 11 7 8 8 14 20 25 33 36 39 41 41 39 36 30 29 25 24 20 21 20 16 13 19 15 14 13 12 10 11 11 10
9 5 4 9 11 9 9 14 15 22 19 12 5 10 12 13 28 35 45 43 39 41 43 42 40 37 31 28 26 23 23 24 23 18 15 20 19 18 14 14 12 11 8 6
18 8 5 5 15 4 4 5 11 9 7 9 17 11 12 17 17 14 42 46 41 40 42 42 39 37 33 30 28 27 27 26 25 22 18 18 23 22 18 14 14 12 11 4
16 17 4 3 8 7 3 5 11 9 12 10 12 12 11 13 6 5 38 46 43 40 39 42 41 40 35 33 32 31 31 30 29 23 19 17 25 23 20 19 15 15 12 7
4 4 12 6 4 2 13 19 6 12 5 11 21 19 17 9 14 25 46 47 45 43 40 41 42 41 38 36 36 34 33 33 27 21 20 21 19 23 22 20 18 16 15 11
4 4 2 4 1 4 27 8 8 7 25 24 22 33 31 36 28 34 47 49 46 46 44 42 42 42 40 38 38 36 36 30 27 22 23 25 21 23 21 21 18 15 17 18
2 4 4 5 1 7 11 11 13 18 19 30 32 16 33 28 30 31 36 46 48 46 47 43 43 42 42 41 39 37 33 31 29 26 25 26 25 25 25 22 21 18 13 23
3 7 3 7 2 16 14 20 27 31 32 33 40 19 30 34 30 26 24 33 47 46 47 45 43 43 43 44 40 33 32 31 31 29 27 26 30 28 26 24 22 21 19 19
2 5 7 6 8 24 1 28 34 41 40 48 47 35 8 26 29 28 27 36 43 49 48 45 42 42 43 42 41 37 33 34 35 31 30 29 32 30 29 26 24 22 19 18
6 4 3 3 16 10 21 29 35 40 44 43 41 42 22 11 28 30 32 37 48 48 46 44 42 43 41 40 39 37 35 37 35 36 34 32 37 33 31 28 26 23 16 14
Wind_Direction
199 209 213 217 218 226 238 236 247 262 268 280 269 272 271 262 246 222 222 235 245 250 235 212 202 203 202 206 209 201 205 192 189 213 274 300 309 323 327 306 292 289 301 281
198 221 218 223 224 218 230 242 248 271 269 260 274 281 286 266 229 221 221 234 244 226 203 194 192 199 206 203 195 195 194 185 171 273 267 300 306 322 331 307 302 302 295 270
209 229 203 210 221 225 228 231 245 244 277 278 277 280 265 296 236 231 239 248 248 211 183 182 192 199 197 192 193 193 185 175 185 218 281 309 316 330 332 314 297 313 295 255
233 220 202 211 221 214 235 227 241 251 255 257 141 281 275 242 267 257 282 292 243 193 189 189 192 193 186 188 185 179 184 178 215 232 295 328 335 336 333 314 309 327 318 166
211 196 217 224 217 216 230 224 235 246 248 261 280 292 267 273 275 271 289 252 195 186 191 191 193 187 182 184 180 179 182 210 238 251 329 340 334 350 350 347 347 16 141 165
218 198 210 221 221 220 233 241 240 257 244 254 244 214 264 222 228 254 231 194 185 186 186 188 187 181 178 178 176 180 189 212 249 193 265 319 336 6 11 359 327 354 185 173
211 223 237 203 216 230 216 203 250 288 197 240 214 195 240 226 229 223 197 202 190 187 185 185 180 177 177 177 179 183 199 198 221 207 240 318 336 12 11 6 349 359 153 171
209 224 211 217 211 212 221 212 202 184 221 234 208 226 257 224 237 231 193 189 183 181 186 181 179 177 179 177 182 187 182 186 182 193 265 326 357 351 14 22 6 12 144 166
195 227 243 206 211 206 222 211 224 215 320 130 210 282 319 262 139 132 136 160 172 182 184 179 179 181 177 179 186 187 176 184 181 195 271 66 14 18 11 15 23 79 127 144
231 219 232 206 198 231 220 141 229 305 205 213 265 242 227 161 155 151 157 158 171 179 178 177 180 179 179 183 182 186 182 186 189 196 169 97 34 28 28 22 51 93 120 147
222 126 306 208 203 209 201 200 198 178 166 192 203 262 195 200 180 172 173 169 176 180 178 178 180 179 181 182 181 179 183 186 185 183 174 145 311 23 52 50 87 99 95 134
212 173 239 241 293 202 210 204 182 215 231 167 156 257 222 213 173 168 172 176 182 181 178 180 179 180 183 186 182 184 181 188 190 185 168 155 198 31 69 62 79 118 102 123
252 218 249 322 229 241 203 201 179 143 123 188 161 256 358 129 151 172 162 178 179 178 178 179 179 184 186 189 185 182 186 190 185 173 169 155 178 94 87 69 69 135 129 126
310 228 208 221 221 167 202 201 188 149 148 164 196 198 228 205 155 171 171 175 178 179 179 179 182 188 189 191 189 181 182 188 183 186 175 174 157 122 103 83 91 134 134 126
3 222 206 222 234 248 220 213 193 189 182 174 201 192 218 191 176 181 176 172 168 175 181 184 186 190 193 192 190 184 182 186 187 188 179 166 143 124 110 99 94 117 129 125
336 292 203 221 226 239 249 229 197 193 177 142 179 208 202 191 182 152 172 168 174 180 185 190 191 191 193 194 189 184 181 188 191 189 178 160 149 158 143 115 96 125 134 131
273 327 291 223 219 232 236 235 209 184 177 152 186 201 169 149 175 179 175 178 182 185 189 194 196 195 193 195 191 186 183 188 190 191 180 169 164 156 146 143 133 117 118 114
238 302 280 221 209 215 228 208 203 198 183 186 160 176 168 190 190 192 190 184 187 189 193 199 198 198 195 193 192 186 185 191 190 190 186 174 171 169 162 164 174 164 135 111
209 208 274 194 204 240 215 218 181 166 231 178 184 195 193 178 166 185 191 192 192 195 199 200 201 200 193 192 190 187 187 193 192 190 189 179 176 177 178 170 167 169 159 134
181 201 208 322 151 197 169 285 193 154 222 192 176 186 193 141 145 222 193 197 198 198 201 201 203 202 194 192 190 187 190 194 195 194 192 187 185 185 187 191 185 172 175 165
298 175 220 234 257 76 344 318 114 166 273 313 189 193 186 179 188 196 191 197 201 199 202 205 204 202 197 192 190 191 192 197 200 197 194 194 184 187 191 188 192 201 193 184
310 303 5 317 172 67 349 344 60 304 320 346 214 193 193 204 194 189 192 198 201 203 203 204 205 204 199 194 192 194 197 197 198 194 195 200 191 185 191 194 198 197 204 193
216 6 304 30 216 344 336 52 5 349 350 4 350 233 193 182 180 175 189 199 199 201 201 202 206 203 202 196 196 198 200 194 194 194 194 201 197 193 196 193 198 204 206 199
298 3 296 328 245 341 309 355 349 1 2 357 1 357 194 180 172 178 180 187 194 194 198 199 201 204 202 199 201 204 198 193 195 197 197 202 198 197 201 203 205 211 211 207
243 314 318 291 307 336 322 349 350 352 358 7 2 2 345 182 171 178 184 183 187 191 196 194 199 205 204 201 203 203 200 194 196 199 201 205 202 199 200 207 210 217 228 227
154 201 64 286 297 269 288 325 340 349 357 358 353 349 6 348 180 175 182 186 186 190 191 193 201 207 206 202 205 203 201 199 197 198 202 207 204 204 205 207 211 217 225 227
Height
1458 1466 1465 1461 1460 1462 1468 1471 1471 1455 1444 1460 1457 1452 1438 1433 1431 1430 1431 1433 1433 1434 1438 1443 1448 1452 1455 1457 1460 1463 1464 1464 1466 1467 1468 1468 1466 1463 1460 1458 1457 1456 1454 1453
1455 1445 1446 1454 1456 1460 1464 1467 1466 1452 1445 1458 1452 1448 1434 1427 1426 1425 1425 1426 1427 1430 1432 1437 1445 1449 1451 1455 1459 1462 1463 1462 1464 1465 1466 1466 1464 1461 1457 1456 1455 1453 1451 1450
1438 1433 1443 1448 1452 1456 1455 1461 1458 1460 1445 1447 1453 1450 1440 1421 1420 1421 1423 1423 1424 1425 1427 1433 1441 1445 1448 1453 1457 1459 1461 1461 1463 1464 1465 1465 1463 1460 1455 1453 1452 1450 1448 1448
1432 1434 1436 1441 1444 1447 1455 1444 1447 1452 1458 1471 1444 1471 1445 1422 1420 1418 1416 1416 1417 1419 1425 1429 1436 1441 1446 1452 1456 1457 1459 1460 1462 1463 1464 1463 1461 1457 1453 1451 1450 1449 1447 1447
1414 1423 1432 1436 1433 1437 1438 1439 1444 1444 1453 1459 1446 1464 1442 1424 1422 1416 1412 1412 1413 1416 1418 1425 1433 1439 1447 1451 1454 1456 1457 1459 1461 1463 1463 1462 1460 1455 1452 1451 1450 1448 1448 1448
1413 1414 1420 1421 1426 1430 1428 1441 1442 1445 1452 1468 1448 1457 1432 1432 1418 1411 1407 1410 1411 1415 1421 1427 1434 1441 1446 1450 1453 1455 1457 1459 1461 1462 1462 1461 1459 1455 1453 1451 1450 1448 1447 1448
1414 1414 1413 1414 1424 1423 1430 1446 1470 1484 1474 1461 1442 1452 1432 1412 1408 1408 1407 1410 1413 1416 1421 1426 1434 1440 1445 1448 1451 1454 1456 1458 1460 1461 1462 1461 1458 1455 1453 1451 1449 1448 1448 1449
1415 1421 1404 1400 1407 1418 1424 1435 1453 1470 1473 1456 1434 1442 1422 1399 1396 1398 1402 1406 1412 1417 1422 1427 1434 1439 1443 1446 1450 1453 1455 1458 1459 1460 1461 1460 1458 1456 1454 1452 1450 1448 1448 1449
1404 1404 1386 1390 1400 1407 1413 1424 1420 1441 1441 1446 1439 1420 1405 1396 1399 1402 1404 1408 1411 1415 1420 1426 1434 1438 1442 1446 1449 1452 1454 1457 1459 1460 1460 1460 1459 1457 1455 1453 1451 1449 1449 1450
1389 1405 1384 1384 1394 1395 1398 1407 1430 1442 1455 1456 1442 1427 1429 1408 1407 1407 1409 1407 1411 1417 1422 1427 1432 1437 1441 1445 1448 1451 1453 1457 1459 1460 1460 1460 1459 1458 1456 1454 1452 1452 1452 1453
1382 1391 1389 1381 1382 1383 1400 1408 1412 1416 1427 1447 1459 1436 1404 1402 1403 1404 1404 1403 1408 1414 1419 1425 1431 1436 1440 1445 1448 1450 1453 1456 1458 1459 1460 1461 1460 1459 1458 1456 1455 1454 1454 1454
1370 1390 1400 1378 1368 1371 1384 1391 1399 1410 1424 1422 1430 1420 1388 1389 1394 1395 1399 1403 1408 1413 1418 1425 1430 1434 1439 1443 1446 1448 1452 1455 1458 1459 1460 1461 1461 1460 1459 1458 1456 1456 1456 1456
1378 1378 1400 1388 1378 1371 1373 1375 1383 1394 1406 1416 1427 1423 1384 1386 1390 1393 1397 1403 1408 1413 1418 1424 1429 1433 1437 1442 1445 1448 1451 1454 1457 1459 1460 1461 1461 1461 1461 1459 1457 1457 1458 1459
1387 1368 1369 1377 1364 1361 1370 1367 1371 1383 1408 1411 1401 1401 1388 1393 1391 1394 1396 1399 1404 1409 1415 1421 1426 1430 1435 1440 1443 1447 1450 1453 1456 1459 1461 1461 1462 1462 1463 1461 1459 1459 1461 1462
1386 1364 1356 1351 1355 1354 1355 1355 1361 1366 1374 1388 1393 1396 1389 1390 1387 1387 1391 1398 1404 1409 1414 1418 1421 1427 1432 1437 1441 1445 1448 1452 1455 1458 1460 1462 1463 1464 1464 1464 1463 1463 1464 1466
1387 1377 1350 1356 1349 1351 1359 1350 1351 1356 1367 1374 1377 1386 1373 1375 1381 1388 1390 1396 1400 1404 1409 1414 1419 1423 1428 1434 1438 1443 1447 1450 1454 1457 1460 1462 1464 1465 1467 1467 1467 1467 1469 1470
1398 1385 1365 1354 1346 1351 1364 1347 1345 1349 1352 1362 1379 1368 1368 1376 1380 1381 1387 1390 1393 1398 1404 1410 1414 1418 1424 1430 1435 1439 1444 1448 1452 1456 1459 1462 1464 1466 1468 1469 1470 1471 1473 1473
1390 1388 1382 1351 1353 1372 1333 1326 1330 1338 1342 1348 1355 1356 1360 1363 1369 1373 1375 1381 1388 1393 1399 1404 1409 1415 1420 1426 1432 1438 1442 1446 1450 1454 1458 1461 1464 1466 1468 1470 1472 1474 1475 1477
1374 1386 1382 1363 1348 1338 1326 1323 1327 1339 1347 1340 1345 1350 1351 1357 1363 1371 1372 1376 1381 1385 1391 1396 1403 1408 1416 1422 1428 1434 1439 1443 1448 1452 1456 1460 1463 1466 1468 1470 1473 1475 1477 1478
1356 1367 1372 1358 1361 1360 1326 1318 1311 1321 1349 1332 1338 1343 1347 1352 1373 1367 1368 1374 1379 1383 1388 1393 1399 1406 1413 1419 1425 1430 1435 1440 1444 1449 1454 1458 1462 1465 1468 1470 1472 1475 1478 1480
1369 1368 1368 1363 1366 1339 1344 1330 1311 1345 1359 1338 1330 1334 1340 1348 1348 1353 1360 1368 1375 1379 1384 1391 1396 1401 1407 1415 1421 1426 1431 1436 1441 1447 1452 1456 1460 1463 1467 1470 1473 1475 1478 1480
1383 1377 1369 1365 1349 1355 1352 1337 1349 1371 1352 1340 1327 1326 1332 1337 1343 1347 1354 1361 1369 1376 1383 1387 1392 1397 1404 1410 1416 1421 1427 1433 1439 1444 1449 1453 1457 1461 1465 1469 1472 1475 1477 1479
1385 1389 1385 1378 1370 1373 1369 1370 1371 1364 1353 1339 1336 1325 1326 1332 1338 1344 1348 1356 1363 1370 1377 1382 1388 1394 1400 1406 1411 1417 1423 1430 1436 1441 1445 1450 1455 1458 1462 1466 1470 1473 1476 1478
1401 1393 1382 1378 1365 1367 1369 1370 1367 1355 1346 1339 1332 1327 1322 1326 1332 1338 1343 1350 1357 1365 1373 1378 1385 1390 1395 1402 1407 1413 1419 1427 1433 1438 1442 1446 1451 1455 1459 1462 1466 1469 1472 1474
1396 1392 1390 1375 1369 1357 1361 1366 1357 1350 1342 1329 1327 1332 1330 1325 1329 1334 1340 1344 1352 1360 1368 1375 1380 1385 1390 1397 1403 1410 1416 1422 1427 1433 1438 1442 1447 1451 1455 1459 1461 1465 1468 1470
1383 1387 1386 1387 1377 1378 1366 1360 1357 1350 1340 1338 1338 1336 1331 1331 1329 1332 1338 1343 1349 1357 1365 1371 1377 1382 1387 1393 1398 1405 1411 1417 1422 1428 1433 1436 1441 1446 1450 1454 1458 1462 1465 1468